Regional Weather Roundup
Issued by NWS New Orleans/Baton Rouge, LA

Home | Current Version | Previous Version | Text Only | Print | Product List | Glossary On
Versions: 1 2 3 4 5 6 7 8 9 10 11 12 13 14 15 16 17 18 19 20 21 22 23 24 25 26 27 28 29 30 31 32 33 34 35 36 37 38 39 40 41 42 43 44 45 46 47 48 49 50
595
ASUS44 KLIX 301001
RWRLIX
NEW ORLEANS REGIONAL WEATHER ROUNDUP
NATIONAL WEATHER SERVICE NEW ORLEANS LA
500 AM CDT SAT AUG 30 2014

NOTE: "FAIR" INDICATES FEW OR NO CLOUDS BELOW 12,000 FEET WITH NO
      SIGNIFICANT WEATHER AND/OR OBSTRUCTIONS TO VISIBILITY.
      SKY/WX - SKY CONDITION AND SIGNIFICANT WEATHER.
      TMP - AIR TEMPERATURE.     DP    - DEWPOINT TEMPERATURE.
      RH  - RELATIVE HUMIDITY.   PRES  - PRESSURE.
      HI  - HEAT INDEX.          WCI   - WIND CHILL INDEX.

*  THESE STATIONS ARE NOT NWS OR FAA STATIONS AND ARE NOT UNDER
   NWS QUALITY CONTROL.

LAZ038-040-048-061>063-065>067-069-301100-
SOUTHEAST LOUISIANA

CITY           SKY/WX    TMP DP  RH WIND       PRES   REMARKS
N.O. AUDUBON     N/A     81  78  92 MISG        N/A
N.O. INTL ARPT CLOUDY    80  75  84 SE6       29.99S
N.O. LAKEFRONT CLOUDY    80  76  87 SE7       30.00S
N.O. DOWNTOWN*   N/A     81  73  78 SE5       30.00S
SLIDELL        MOCLDY    78  75  90 CALM      30.01R
BATON ROUGE    CLOUDY    75  73  93 E6        29.98F
BOOTHVILLE     MOCLDY    80  76  87 SE3       30.00S
BELLE CHASSE   CLOUDY    80  75  84 SE5       29.99R
BOGALUSA*        N/A     75  72  89 CALM      30.03S
GALLIANO*      NOT AVBL
NEW ROADS*       N/A     75  74  97 E3        29.97F
GONZALES*        N/A     76  76 100 CALM      29.98F
HAMMOND*       NOT AVBL
HOUMA*         CLOUDY    78  75  90 CALM      29.98S
PORT FOURCHON* SUNNY     82  75  78 SE12      29.99F

$$

MSZ070-080>082-301100-
SOUTHERN MISSISSIPPI

CITY           SKY/WX    TMP DP  RH WIND       PRES   REMARKS
MCCOMB         CLOUDY    75  73  93 CALM      30.02S
GULFPORT       MOCLDY    82  76  81 S8        30.01R
BILOXI         CLOUDY    82  76  82 S8        30.02R
PASCAGOULA     CLOUDY    76  74  93 CALM      30.03R

$$

COASTAL OBSERVATIONS
LAKE AND NEARSHORE STATIONS

STATION/POSITION TIME  TEMP    WIND        PRES    WAVE
                       AIR SEA DIR/SP/G            HT/PER
                 (UTC) (F)     (DEG/KT/KT) (MB)    (FT/S)
PASCAGOULA       0900   84     170/  9/ 15 1016.0
WAVELAND YACHT   0900   83     180/  9/ 14 1015.7
GRAND ISLE       0900   83 83  160/ 10/ 13 1016.2
SOUTHWEST PASS   0900   83 88  150/ 14/ 20 1016.0
NEW CANAL        0900   80 82  130/  3/  7 1016.3
SHELL BEACH      0900   80 81  150/  6/  9 1015.7

OFFSHORE STATIONS

STATION/POSITION TIME  TEMP    WIND        PRES    WAVE
                       AIR SEA DIR/SP/G            HT/PER
                 (UTC) (F)     (DEG/KT/KT) (MB)    (FT/S)
64 S DAUPHIN ISL 1000   83 84  140/ 12/ 14 1016.7

$$




USA.gov is the U.S. government's official web portal to all federal, state and local government web resources and services.